Location: Chiroubles
(46.1812°N, 4.6660°E)
Time: 01:51:16
(UTC+00:00)

Cosmos 1891 Rocket - Pass Details

Date: 15 August 2020
Orbit: 933 x 1019 km, 82.9° (Epoch: 27 September)

Event Time Altitude Azimuth Distance (km) Brightness Sun altitude
Exits shadow 23:21:58 82° 253° (WSW) 1,028 4.4 -29.9°
Maximum altitude 23:22:06 82° 278° (W) 1,026 4.5 -29.9°
Drops below altitude 10° 23:28:32 10° 7° (N) 2,780 7.8 -30.0°
Sets 23:31:04 0° 9° (N) 3,723 8.7 -30.1°
